Regional Weather Roundup
Issued by NWS

Current Version | Previous Version | Text Only | Print | Product List | Glossary On
Versions: 1 2 3 4 5 6 7 8 9 10 11 12 13 14 15 16 17 18 19 20 21 22 23 24 25 26 27
000
ASUS42 KTBW 180316
RWRFL
FLORIDA REGIONAL WEATHER ROUNDUP
NATIONAL WEATHER SERVICE TAMPA BAY RUSKIN FL
1000 PM EST TUE JAN 17 2017

NOTE: "FAIR" INDICATES FEW OR NO CLOUDS BELOW 12,000 FEET WITH NO
SIGNIFICANT WEATHER AND/OR OBSTRUCTIONS TO VISIBILITY.

FLZ001>010-012>015-112-114-115-180400-
PANHANDLE FLORIDA

CITY           SKY/WX    TMP DP  RH WIND       PRES   REMARKS
PENSACOLA      PTCLDY    67  65  93 SE3       30.17F FOG
PENSACOLA NAS  MOCLDY    67  66  97 S6        30.17F
MILTON NAS     MOCLDY    62  62 100 SE5       30.18  FOG
CRESTVIEW      FOG       60  59  96 CALM      30.22R VSB 1/4
DUKE FIELD     FOG       63  63  98 S3        30.19R VSB 1/2
VALPARAISO     PTCLDY    65  65  98 CALM      30.20R
MARY ESTHER    PTCLDY    68  68 100 S5        30.18R
TRI COUNTY     FAIR      62  62 100 CALM      30.21R FOG
PANAMA CITY    FAIR      62  61  96 CALM      30.19R
TYNDALL AFB    PTCLDY    64  62  96 E3        30.21R
APALACHICOLA   CLOUDY    66  66 100 CALM      30.21F

STATION/POSITION SKY/WX   TEMP    WIND        PRES    WAVE   SWELL
                          AIR SEA DIR/SP/G            HT/PER HT/PER
                          (F)     (DEG/KT/KT) (MB)    (FT/S) (FT/S)
30.1N   87.6W              68 67  140/  6/  6 1021.7F   3/ 7   3/ 7
28.8N   86.0W              75 75              1022.6R   3/ 6   3/ 6
PANAMA CITY BEAC           65 65  120/ 10/ 11 1022.8R
TOWER C                    67     150/ 13/ 13 1023.4F
28.5N   84.5W              72 72  120/  4/  6 1023.4    2/ 6   2/ 6

$$
FLZ011-016>038-118-127-128-134-139-239-180400-
NORTH FLORIDA

CITY           SKY/WX    TMP DP  RH WIND       PRES   REMARKS
MARIANNA       CLOUDY    66  65  96 S5        30.20R
TALLAHASSEE    MOCLDY    64  63  96 SE5       30.21F
PERRY          PTCLDY    58  57  97 CALM      30.23F FOG
CROSS CITY     CLEAR     55  54  94 CALM      30.23F
LAKE CITY      FAIR      57  57 100 CALM      30.24S
GAINESVILLE    PTCLDY    60  56  86 CALM      30.24F
WILLISTON      PTCLDY    63  61  94 CALM      30.25S
PALATKA        MOCLDY    61  61 100 W3        30.25S
MAYPORT NAS    PTCLDY    63  61  93 S7        30.23S
JACKSONVILLE   MOCLDY    61  61 100 W5        30.23R
JAX NAS        MOCLDY    66  61  84 SW7       30.24S
FERNANDINA BEA FAIR      64  63  94 S6        30.22R
ST AUGUSTINE   CLEAR     66  63  90 S6        30.25S

STATION/POSITION SKY/WX   TEMP    WIND        PRES    WAVE   SWELL
                          AIR SEA DIR/SP/G            HT/PER HT/PER
                          (F)     (DEG/KT/KT) (MB)    (FT/S) (FT/S)
SHELL POINT      NOT AVBL
KEATON BEACH               64     110/  2/  3 1023.0F
CEDAR KEY                  67     360/  3/  3 1024.5S
FERNANDINA                 65 65  160/  4/  5 1024.2R
30.7N   81.3W                 62                N/A     2/ 9
MAYPORT          NOT AVBL
31.4N   80.9W              63 60  180/  8/  8 1023.0R   2/ 9   2/ 9
ST AUGUSTINE               66 64  180/  7/  8 1024.7R

$$
FLZ040-043>046-052-053-057-058-063-144-180400-
INTERIOR CENTRAL FLORIDA

CITY           SKY/WX    TMP DP  RH WIND       PRES   REMARKS
OCALA          MOCLDY    61  55  82 CALM      30.25S
THE VILLAGES     N/A     66  64  94 CALM      30.16R
LEESBURG       CLEAR     65  60  84 N3        30.26S
SANFORD        CLEAR     67  61  81 SE3       30.24F
ORLANDO EXEC   PTCLDY    68  63  84 E3        30.24F
ORLANDO INTL   MOCLDY    68  63  84 E3        30.25S
KISSIMMEE      CLEAR     67  63  87 CALM      30.25S
WINTER HAVEN   PTCLDY    66  60  81 NW9       30.26R
LAKELAND       MOCLDY    66  63  88 N3        30.25S
BARTOW         CLOUDY    66  61  82 NW6       30.25R
OKEECHOBEE     CLOUDY    64  59  82 E3        30.24R

$$
FLZ041-047-054-059-064-141-147-180400-
EAST CENTRAL FLORIDA

CITY           SKY/WX    TMP DP  RH WIND       PRES   REMARKS
DAYTONA BEACH  PTCLDY    61  61 100 CALM      30.24F
DELAND         CLEAR     63  59  88 CALM      30.24S
NEW SMYRNA BEA PTCLDY    68  64  88 CALM      30.25S
JFK SPACE CTR  PTCLDY    66  64  94 S3        30.24S
CAPE CANAVERAL MOCLDY    67  64  89 CALM      30.24S FOG
PATRICK AFB    PTCLDY    70  69  96 CALM      30.24R
MELBOURNE      PTCLDY    67  63  87 CALM      30.25R
VERO BEACH     CLOUDY    72  61  68 CALM      30.24R
FT PIERCE      CLOUDY    72  61  68 CALM      30.24R

STATION/POSITION SKY/WX   TEMP    WIND        PRES    WAVE   SWELL
                          AIR SEA DIR/SP/G            HT/PER HT/PER
                          (F)     (DEG/KT/KT) (MB)    (FT/S) (FT/S)
TRIDENT PIER               69 68   70/  2/  3 1024.2R
28.4N   80.5W                 71                N/A     2/ 5
27.5N   80.2W                 76                N/A     3/11

$$
FLZ050-056-061-142-242-148-248-149-249-151-251-155-255-
160-260-180400-
WEST CENTRAL FLORIDA

CITY           SKY/WX    TMP DP  RH WIND       PRES   REMARKS
CRYSTAL RIVER  FAIR      59  59 100 CALM      30.25S
INVERNESS      FAIR      61  61 100 CALM      30.26R
BROOKSVILLE    CLEAR     67  61  81 N5        30.26S
CLEARWATER AIR MOCLDY    64  63  94 CALM      30.24S
ST PETE CLEARW CLOUDY    68  64  87 N3        30.24S
TAMPA INTL     MOCLDY    69  61  75 N3        30.25R
TAMPA EXEC     CLOUDY    64  61  88 CALM      30.25S
PLANT CITY     MOCLDY    68  64  88 N3        30.27R
MACDILL AFB    MOCLDY    65  64  93 N3        30.24S
PETER O KNIGHT MOCLDY    70  64  83 N3        30.25R
ST PETERSBURG  PTCLDY    67  63  87 N5        30.22S
SARASOTA       PTCLDY    64  58  80 CALM      30.21S
VENICE         FAIR      64  63  94 NE6       30.23S

STATION/POSITION SKY/WX   TEMP    WIND        PRES    WAVE   SWELL
                          AIR SEA DIR/SP/G            HT/PER HT/PER
                          (F)     (DEG/KT/KT) (MB)    (FT/S) (FT/S)
27.3N   84.2W                 78                N/A     3/ 6
CLEARWATER BEACH                   20/  4/  5 1024.1R
MIDDLE TAMPA BAY           67      50/  6/  6 1024.1R
VENICE                     70 67  340/  3/  3 1022.9R

$$
FLZ066-069-070-075>078-162-262-165-265-180400-
SOUTHWEST FLORIDA AND KEYS

CITY           SKY/WX    TMP DP  RH WIND       PRES   REMARKS
PUNTA GORDA    CLEAR     63  60  90 CALM      30.24R
FT MYERS       CLEAR     68  62  81 CALM      30.22R
SOUTHWEST INTL CLEAR     69  60  73 E3        30.22S
NAPLES         PTCLDY    68  62  81 CALM      30.22R
MARCO ISLAND   CLEAR     45 N/A N/A E5        30.22R WCI  42
MARATHON       PTCLDY    77  65  66 E8        30.20R
KEY WEST NAS   PTCLDY    74  66  76 E12       30.20S
KEY WEST INTL  PTCLDY    76  68  76 E13       30.20S

STATION/POSITION SKY/WX   TEMP    WIND        PRES    WAVE   SWELL
                          AIR SEA DIR/SP/G            HT/PER HT/PER
                          (F)     (DEG/KT/KT) (MB)    (FT/S) (FT/S)
NAPLES                        69              1023.2R
26.0N   85.6W              75 75  120/ 14/ 16 1021.8F   4/ 7   3/ 7
DRY TORTUGAS               74      90/ 12/ 13 1022.1R
SAND KEY                   76     120/ 17/ 19 1022.8S
LONG KEY                   74 72  110/  9/ 10 1023.1R

$$
FLZ067-068-071>074-168-172>174-180400-
SOUTHEAST FLORIDA

CITY           SKY/WX    TMP DP  RH WIND       PRES   REMARKS
W PALM BEACH   CLOUDY    71  60  68 S5        30.23S
FT LAUDER-EXEC CLEAR     70  60  70 CALM      30.22R
FT LAUDERDALE  PTCLDY    73  61  65 SE5       30.22R
POMPANO BEACH  PTCLDY    74  62  66 SE7       30.22S
PEMBROKE PINES CLEAR     68  60  75 CALM      30.23R
OPA LOCKA      CLEAR     69  61  75 CALM      30.23R
MIAMI          PTCLDY    72  61  68 E3        30.22R
WEST KENDALL   CLEAR     65  61  87 CALM      30.22R
HOMESTEAD      CLEAR     65  65 100 CALM      30.22R

STATION/POSITION SKY/WX   TEMP    WIND        PRES    WAVE   SWELL
                          AIR SEA DIR/SP/G            HT/PER HT/PER
                          (F)     (DEG/KT/KT) (MB)    (FT/S) (FT/S)
PORT EVERGLADES            75     110/  3/  6 1023.1S
VIRGINIA KEY               74 78  110/  6/  8 1023.6R
LAKE WORTH                 75 76  130/ 11/ 13 1022.9F
FOWEY ROCKS                75 75   90/ 15/ 18 1023.3F

$$





USA.gov is the U.S. government's official web portal to all federal, state and local government web resources and services.